Skip Page Navigation
NASA JPL Caltech
NASA Logo - Jet Propulsion Laboratory + View the NASA Portal
+ Near-Earth Object (NEO) Program
Search JPL
JPL Home Earth Solar System Stars & Galaxies Technology
JPL Solar System Dynamics
BODIES ORBITS EPHEMERIDES TOOLS PHYSICAL DATA DISCOVERY FAQ SITE MAP
JPL Small-Body Database Browser
Search: [ help ]  
20246 Frappa (1998 ER6)
Classification: Main-belt Asteroid          SPK-ID: 2020246
Ephemeris | Orbit Diagram | Orbital Elements | Physical Parameters | Discovery Circumstances ]

[ show orbit diagram ]
Orbital Elements at Epoch 2457000.5 (2014-Dec-09.0) TDB
Reference: JPL 14 (heliocentric ecliptic J2000)
 Element Value Uncertainty (1-sigma)   Units 
e .08262750958247754 7.3588e-08  
a 2.295786194156118 1.3198e-08 AU
q 2.106091098399164 1.698e-07 AU
i 4.078595819725342 7.7074e-06 deg
node 336.7305148252786 6.8962e-05 deg
peri 201.9692725896413 7.4753e-05 deg
M 285.1539416302577 3.1253e-05 deg
tp 2457264.656936863444
(2015-Aug-30.15693686)
0.0001108 JED
period 1270.561193764668
3.48
1.0956e-05
3e-08
d
yr
n .283339363555817 2.4433e-09 deg/d
Q 2.485481289913072 1.4289e-08 AU
  Orbit Determination Parameters
   # obs. used (total)      866  
   data-arc span      22652 days (62.02 yr)  
   first obs. used      1953-05-11  
   last obs. used      2015-05-18  
   planetary ephem.      DE431  
   SB-pert. ephem.      SB431-BIG16  
   condition code      0  
   fit RMS      .53352  
   data source      ORB  
   producer      Otto Matic  
   solution date      2015-Jun-04 16:36:27  

Additional Information
 Earth MOID = 1.11145 AU 
 T_jup = 3.587 
[ show covariance matrix ]

Ephemeris | Orbit Diagram | Orbital Elements | Physical Parameters | Discovery Circumstances ]

Physical Parameter Table
Parameter Symbol Value Units Sigma Reference Notes
absolute magnitude H 15.0 mag n/a MPO337429  

20246 Frappa           Discovered 1998 Mar. 1 by the OCA-DLR Asteroid Survey at Caussols.
Eric Frappa (b. 1969) is a specialist in the occultation of stars by minor planets. He is responsible for the Euraster web site, which collects occultation data for Europe. He spends several observing missions every year at the Pic du Midi. He works at the planetarium in Saint-Etienne, where he creates digital planetarium shows.
NOTE: some special characters may not display properly (any characters within {} are an attempt to place the proper accent above a character)
Reference: 20051215/MPCPages.arcLast Updated: 2006-03-22

Alternate Designations
 1998 ER6 = 1977 DN = 1991 EJ2 
Ephemeris | Orbit Diagram | Orbital Elements | Physical Parameters | Discovery Circumstances ]
ABOUT SSD CREDITS/AWARDS PRIVACY/COPYRIGHT GLOSSARY LINKS
FirstGov 2015-Jul-01 00:03 UT
(server date/time)  
NASA Home Page
Site Manager:   Ryan S. Park
Webmaster  Alan B. Chamberlin